When you browse on this site, cookies collect data to enhance your experience and personalize the content and advertising you see.
Visit our Privacy Policy to learn more. By continuing to use the site, you agree to this use of cookies and data.
  • In Portugal
  • List of Countries
  • For 7 days
  • Water Temperature
  • Weather Map
  • Weather Widgets
  • user-avatar
    Login

    Hourly Weather Vidin

    Today, 1 April, Wednesday

    Time Temperature Precipitation Wind Pressure Humidity
    00:00 0°C° 0.8 mm 3 mps 763 mmHg 97%
    01:00 -1°C° 0.8 mm 4 mps 763 mmHg 97%
    02:00 -2°C° 0 mm 4 mps 763 mmHg 97%
    03:00 -2°C° 0.7 mm 4 mps 763 mmHg 95%
    04:00 -2°C° 0.7 mm 5 mps 763 mmHg 94%
    05:00 -2°C° 0.7 mm 5 mps 763 mmHg 93%
    06:00 -2°C° 0.2 mm 4 mps 763 mmHg 90%
    07:00 -2°C° 0.2 mm 4 mps 763 mmHg 87%
    08:00 -1°C° 0 mm 4 mps 763 mmHg 84%
    09:00 -1°C° 0.4 mm 5 mps 763 mmHg 85%
    10:00 -1°C° 0.4 mm 5 mps 762 mmHg 86%
    11:00 -1°C° 0.4 mm 5 mps 762 mmHg 86%
    12:00 -1°C° 0.6 mm 5 mps 762 mmHg 88%
    13:00 -1°C° 0.6 mm 5 mps 762 mmHg 89%
    14:00 0°C° 0.6 mm 5 mps 761 mmHg 90%
    15:00 0°C° 0.5 mm 5 mps 761 mmHg 91%
    16:00 0°C° 0.5 mm 4 mps 760 mmHg 92%
    17:00 0°C° 0.5 mm 4 mps 760 mmHg 93%
    18:00 +1°C° 0.3 mm 3 mps 760 mmHg 93%
    19:00 +2°C° 0.3 mm 2 mps 760 mmHg 93%
    20:00 +3°C° 0.3 mm 1 mps 760 mmHg 93%
    21:00 +3°C° 0.1 mm 1 mps 761 mmHg 91%
    22:00 +1°C° 0.1 mm 2 mps 761 mmHg 89%
    23:00 +1°C° 0.1 mm 2 mps 761 mmHg 87%

    Tomorrow, 2 April, Thursday

    Time Temperature Precipitation Wind Pressure Humidity
    00:00 +2°C° 0.1 mm 1 mps 761 mmHg 88%
    01:00 +2°C° 0.1 mm 1 mps 761 mmHg 88%
    02:00 +2°C° 0.1 mm 1 mps 761 mmHg 88%
    03:00 +2°C° 0 mm 1 mps 761 mmHg 88%
    04:00 +2°C° 0 mm 1 mps 761 mmHg 89%
    05:00 -1°C° 0 mm 2 mps 761 mmHg 89%
    06:00 +2°C° 0 mm 1 mps 761 mmHg 87%
    07:00 +2°C° 0 mm 1 mps 761 mmHg 86%
    08:00 +2°C° 0 mm 1 mps 761 mmHg 85%
    09:00 +3°C° 0 mm 1 mps 761 mmHg 80%
    10:00 +4°C° 0 mm 1 mps 760 mmHg 76%
    11:00 +4°C° 0 mm 2 mps 760 mmHg 72%
    12:00 +5°C° 0 mm 2 mps 760 mmHg 71%
    13:00 +6°C° 0 mm 2 mps 760 mmHg 69%
    14:00 +6°C° 0 mm 2 mps 759 mmHg 68%
    15:00 +6°C° 0 mm 2 mps 759 mmHg 72%
    16:00 +6°C° 0 mm 2 mps 758 mmHg 77%
    17:00 +5°C° 0 mm 2 mps 758 mmHg 81%
    18:00 +4°C° 0 mm 2 mps 758 mmHg 85%
    19:00 +3°C° 0 mm 2 mps 758 mmHg 89%
    20:00 +2°C° 0 mm 2 mps 758 mmHg 94%
    21:00 +3°C° 0 mm 1 mps 758 mmHg 92%
    22:00 +2°C° 0 mm 1 mps 758 mmHg 91%
    23:00 +2°C° 0 mm 1 mps 758 mmHg 90%

    Day after tomorrow, 3 April, Friday

    Time Temperature Precipitation Wind Pressure Humidity
    00:00 +2°C° 0 mm 1 mps 758 mmHg 90%
    01:00 +2°C° 0 mm 1 mps 758 mmHg 89%
    02:00 +1°C° 0 mm 0 mps 758 mmHg 89%
    03:00 0°C° 0 mm 0 mps 758 mmHg 89%
    04:00 0°C° 0 mm 0 mps 757 mmHg 89%
    05:00 0°C° 0 mm 0 mps 757 mmHg 90%
    06:00 +1°C° 0 mm 0 mps 757 mmHg 87%
    07:00 +2°C° 0 mm 0 mps 757 mmHg 85%
    08:00 +3°C° 0 mm 0 mps 758 mmHg 83%
    09:00 +6°C° 0 mm 1 mps 758 mmHg 79%
    10:00 +7°C° 0 mm 1 mps 757 mmHg 75%
    11:00 +9°C° 0 mm 1 mps 757 mmHg 71%
    12:00 +10°C° 0 mm 1 mps 757 mmHg 69%
    13:00 +10°C° 0 mm 2 mps 757 mmHg 67%
    14:00 +12°C° 0 mm 2 mps 757 mmHg 65%
    15:00 +12°C° 0 mm 2 mps 757 mmHg 67%
    16:00 +10°C° 0 mm 2 mps 757 mmHg 69%
    17:00 +10°C° 0 mm 3 mps 756 mmHg 71%
    18:00 +9°C° 0 mm 2 mps 757 mmHg 77%
    19:00 +8°C° 0 mm 2 mps 757 mmHg 84%
    20:00 +6°C° 0 mm 2 mps 758 mmHg 90%
    21:00 +6°C° 0 mm 2 mps 758 mmHg 89%
    22:00 +6°C° 0 mm 2 mps 758 mmHg 88%
    23:00 +6°C° 0 mm 1 mps 759 mmHg 87%

    4 April, Saturday

    Time Temperature Precipitation Wind Pressure Humidity
    00:00 +6°C° 0 mm 1 mps 759 mmHg 86%
    01:00 +6°C° 0 mm 1 mps 759 mmHg 86%
    02:00 +6°C° 0 mm 1 mps 759 mmHg 85%
    03:00 +6°C° 0 mm 1 mps 759 mmHg 85%
    04:00 +6°C° 0 mm 1 mps 759 mmHg 84%
    05:00 +6°C° 0 mm 1 mps 759 mmHg 84%
    06:00 +7°C° 0 mm 1 mps 760 mmHg 81%
    07:00 +8°C° 0 mm 1 mps 760 mmHg 78%
    08:00 +9°C° 0 mm 1 mps 760 mmHg 76%
    09:00 +10°C° 0 mm 1 mps 760 mmHg 70%
    10:00 +12°C° 0 mm 1 mps 761 mmHg 65%
    11:00 +14°C° 0 mm 1 mps 761 mmHg 60%
    12:00 +15°C° 0 mm 1 mps 761 mmHg 57%
    13:00 +15°C° 0 mm 1 mps 761 mmHg 54%
    14:00 +16°C° 0 mm 1 mps 761 mmHg 51%
    15:00 +16°C° 0 mm 2 mps 761 mmHg 52%
    16:00 +16°C° 0 mm 2 mps 760 mmHg 52%
    17:00 +16°C° 0 mm 2 mps 760 mmHg 53%
    18:00 +14°C° 0 mm 2 mps 761 mmHg 57%
    19:00 +13°C° 0 mm 1 mps 761 mmHg 61%
    20:00 +11°C° 0 mm 1 mps 762 mmHg 65%
    21:00 +11°C° 0 mm 1 mps 762 mmHg 68%
    22:00 +10°C° 0 mm 1 mps 763 mmHg 72%
    23:00 +10°C° 0 mm 1 mps 763 mmHg 75%

    5 April, Sunday

    Time Temperature Precipitation Wind Pressure Humidity
    00:00 +10°C° 0 mm 1 mps 763 mmHg 76%
    01:00 +8°C° 0 mm 2 mps 763 mmHg 77%
    02:00 +8°C° 0 mm 2 mps 764 mmHg 78%
    03:00 +8°C° 0 mm 2 mps 764 mmHg 79%
    04:00 +7°C° 0 mm 2 mps 764 mmHg 79%
    05:00 +7°C° 0 mm 2 mps 764 mmHg 79%
    06:00 +8°C° 0 mm 3 mps 764 mmHg 77%
    07:00 +8°C° 0 mm 4 mps 765 mmHg 75%
    08:00 +9°C° 0 mm 5 mps 765 mmHg 73%
    09:00 +10°C° 0 mm 6 mps 765 mmHg 69%
    10:00 +13°C° 0 mm 6 mps 765 mmHg 64%
    11:00 +14°C° 0 mm 7 mps 765 mmHg 59%
    12:00 +15°C° 0.1 mm 7 mps 765 mmHg 57%
    13:00 +15°C° 0.1 mm 7 mps 765 mmHg 55%
    14:00 +15°C° 0.1 mm 7 mps 765 mmHg 53%
    15:00 +15°C° 0 mm 7 mps 765 mmHg 52%
    16:00 +15°C° 0 mm 6 mps 765 mmHg 51%
    17:00 +15°C° 0 mm 5 mps 765 mmHg 51%
    18:00 +13°C° 0 mm 5 mps 765 mmHg 53%
    19:00 +12°C° 0 mm 4 mps 766 mmHg 55%
    20:00 +10°C° 0 mm 4 mps 767 mmHg 58%
    21:00 +10°C° 0 mm 4 mps 767 mmHg 54%
    22:00 +10°C° 0 mm 4 mps 768 mmHg 51%
    23:00 +8°C° 0 mm 4 mps 769 mmHg 47%

    6 April, Monday

    Time Temperature Precipitation Wind Pressure Humidity
    00:00 +8°C° 0 mm 5 mps 769 mmHg 48%
    01:00 +7°C° 0 mm 5 mps 769 mmHg 49%
    02:00 +6°C° 0 mm 5 mps 770 mmHg 50%
    03:00 +5°C° 0 mm 6 mps 771 mmHg 49%
    04:00 +4°C° 0 mm 6 mps 771 mmHg 49%
    05:00 +3°C° 0 mm 6 mps 772 mmHg 49%
    06:00 +4°C° 0 mm 7 mps 772 mmHg 48%
    07:00 +4°C° 0 mm 8 mps 773 mmHg 46%
    08:00 +3°C° 0 mm 9 mps 773 mmHg 45%
    09:00 +5°C° 0 mm 9 mps 773 mmHg 43%
    10:00 +6°C° 0 mm 8 mps 774 mmHg 41%
    11:00 +7°C° 0 mm 8 mps 774 mmHg 39%
    12:00 +9°C° 0 mm 8 mps 773 mmHg 38%
    13:00 +9°C° 0 mm 7 mps 773 mmHg 38%
    14:00 +10°C° 0 mm 7 mps 773 mmHg 38%
    15:00 +10°C° 0 mm 7 mps 773 mmHg 38%
    16:00 +10°C° 0 mm 6 mps 773 mmHg 39%
    17:00 +10°C° 0 mm 6 mps 773 mmHg 40%
    18:00 +9°C° 0 mm 5 mps 773 mmHg 45%
    19:00 +7°C° 0 mm 4 mps 774 mmHg 50%
    20:00 +5°C° 0 mm 3 mps 774 mmHg 55%
    21:00 +5°C° 0 mm 3 mps 774 mmHg 56%
    22:00 +4°C° 0 mm 3 mps 775 mmHg 57%
    23:00 +4°C° 0 mm 3 mps 775 mmHg 58%
    Show more